SCP
0 0 0 0 0 0 0 0 0 0 0 0 0 0 0 -0 -0 -0 0 -0 0 0 -0 -0 -0 -0 -0 -0 -0 -0 -0 -0 -0 -0 -0 -0 -0 -0 -0 -0 -0 -0 -0 -0 -0 -0 -0 0 0
0 0 0 0 0 0 0 0 0 0 0 0 0 0 0 -0 0 -0 0 0 -0 0 0 -0 -0 -0 -0 -0 -0 -0 -0 -0 -0 -0 -0 -0 -0 -0 -0 -0 -0 -0 -0 -0 -0 -0 -0 0 0
0 0 0 0 0 0 0 0 0 0 0 0 0 0 0 0 0 0 0 -0 -0 -0 0 -0 -0 -0 -0 -0 -0 -0 -0 -0 -0 -0 -0 -0 -0 -0 -0 -0 -0 -0 -0 -0 -0 -0 -0 -0 0
0 0 0 0 0 0 0 0 0 0 0 0 0 0 0 0 1 0 0 0 0 0 0 0 0 0 0 0 0 0 0 0 -0 -0 -0 -0 -0 -0 -0 -0 -0 -0 -0 -0 -0 -0 -0 -0 -0
0 0 0 0 0 0 0 0 0 0 0 0 0 0 0 0 1 0 0 0 0 0 0 0 0 0 0 0 0 0 0 0 0 0 0 0 -0 -0 -0 -0 0 -0 -0 -0 -0 -0 -0 -0 -0
0 0 0 0 0 0 0 0 0 0 0 0 0 0 0 0 1 1 1 0 0 0 0 0 0 0 0 0 0 0 0 0 0 0 0 0 0 0 0 0 0 0 -0 0 0 0 -0 -0 -0
0 0 0 0 0 0 0 0 0 0 0 0 0 0 0 0 1 1 1 0 0 0 0 0 0 0 0 0 0 0 0 1 1 1 0 0 0 0 0 0 0 0 0 0 0 0 0 -0 -0
0 0 0 0 0 0 0 0 0 0 0 0 0 0 0 0 0 1 1 1 0 0 0 0 0 0 0 0 0 0 0 1 1 1 1 1 0 0 0 0 0 0 0 0 0 0 -0 -0 -0
0 0 0 0 0 0 0 0 0 0 0 0 0 0 0 0 0 0 0 1 1 1 1 0 0 0 0 0 1 0 0 0 1 1 1 0 0 0 0 0 0 0 0 0 0 0 0 0 0
0 0 0 0 0 0 0 0 0 0 0 0 0 0 0 0 0 0 0 0 0 1 1 1 1 1 1 1 1 0 0 0 0 0 0 0 0 0 0 0 0 0 0 0 0 0 0 0 0
0 0 0 0 0 0 0 0 0 0 0 0 0 0 0 0 0 0 0 0 0 0 2 1 2 2 1 1 1 1 1 0 0 0 0 0 0 0 0 0 0 0 0 0 0 0 0 0 0
0 0 0 0 0 0 0 0 0 0 0 0 0 0 0 0 0 0 0 0 0 0 0 2 2 2 2 2 1 1 1 1 0 0 0 0 0 0 0 0 0 0 0 0 0 0 0 0 0
0 0 0 0 0 0 0 0 0 0 0 0 0 0 0 0 0 0 0 0 0 0 0 0 1 2 2 2 2 2 1 1 1 1 0 0 0 0 0 0 0 0 0 0 0 0 0 0 0
0 0 0 0 0 0 0 0 0 0 0 0 0 0 0 0 0 0 0 0 0 0 0 0 1 1 1 2 2 2 2 2 1 1 1 0 0 1 0 0 0 0 0 0 0 0 0 0 0
0 0 0 0 0 0 0 0 0 0 0 0 0 0 0 0 0 0 0 0 0 0 0 0 0 1 1 1 2 2 2 2 2 1 1 1 1 0 1 0 0 0 0 0 0 0 0 0 0
0 0 0 0 0 0 0 0 0 0 0 0 0 0 0 0 0 0 0 0 0 -0 0 0 0 0 1 1 2 1 2 2 2 1 1 1 1 1 1 0 0 0 0 0 0 0 0 0 0
0 0 0 0 0 0 0 0 0 0 0 0 -0 -0 0 0 0 0 0 0 -0 -0 0 0 0 -0 1 1 1 1 1 1 2 2 1 1 0 0 1 1 1 1 0 0 0 0 0 0 0
0 0 0 0 0 0 0 0 0 0 0 0 0 0 0 0 0 0 0 0 -0 0 0 0 0 0 0 1 0 0 1 1 1 1 1 1 1 1 0 0 0 1 1 0 0 0 0 0 0
0 0 0 0 0 0 0 0 0 0 0 0 0 0 0 0 0 0 0 -0 -0 0 0 0 0 1 1 1 0 0 0 0 0 0 1 1 1 1 1 1 1 1 0 1 1 1 1 1 1
0 0 0 0 0 0 0 0 0 0 0 0 0 0 0 0 0 0 -0 -0 -0 0 0 0 0 1 1 1 1 0 0 0 0 0 0 1 0 1 1 1 1 1 1 2 1 1 1 1 1
0 0 0 0 0 0 0 0 0 0 0 0 0 0 0 0 0 0 0 -0 -0 -0 0 0 0 0 0 0 1 1 1 1 0 0 0 0 1 1 1 0 0 1 1 1 2 1 1 1 1
0 0 0 0 0 0 0 0 0 0 0 0 0 0 0 0 0 0 0 0 0 0 0 0 0 0 0 0 0 1 0 0 0 0 0 0 0 0 0 1 0 1 0 0 1 1 2 2 2
0 0 0 0 0 0 0 0 0 0 0 0 0 0 0 0 0 0 0 0 0 0 0 0 0 0 0 1 0 0 0 0 0 0 0 0 0 0 0 0 1 1 1 1 0 1 1 0 1
0 0 0 0 0 0 0 0 0 0 0 0 0 0 0 0 0 0 0 0 0 0 0 0 0 0 0 0 0 1 1 1 0 1 1 0 0 0 0 0 0 1 1 1 1 0 1 1 2
0 0 0 0 0 0 0 0 0 0 0 0 0 0 0 0 0 0 0 0 0 0 0 0 0 0 0 0 0 1 1 1 1 1 0 1 0 0 0 1 1 1 1 1 1 1 1 1 1
0 0 0 0 0 0 0 0 0 0 -0 0 0 0 0 0 0 0 0 0 0 0 0 0 0 0 0 0 0 1 1 0 0 1 0 0 0 0 0 1 1 1 1 1 1 1 1 1 2
0 0 0 0 0 0 0 0 0 0 0 0 0 0 0 0 0 0 0 0 0 0 0 0 0 0 0 0 0 1 1 0 0 0 0 0 0 0 0 0 1 1 1 1 1 1 1 1 1
0 0 0 0 0 0 0 0 0 0 0 0 0 0 0 0 0 0 0 0 0 0 0 0 0 0 0 0 0 0 1 0 0 0 0 0 0 0 0 0 1 1 1 1 1 1 1 1 1
0 0 0 0 0 0 0 0 0 0 0 0 0 0 0 0 0 0 0 0 0 0 0 0 0 0 0 0 0 0 0 0 0 0 0 0 0 0 0 0 0 0 1 1 1 1 1 1 1
0 0 0 0 0 0 0 0 0 0 0 0 0 0 0 0 0 0 0 0 0 0 0 0 0 0 0 0 0 0 0 0 0 0 0 0 0 0 0 0 0 0 0 1 1 1 1 0 0
Wind_Speed_500mb
11 11 8 8 13 12 10 11 5 8 7 4 1 3 16 19 19 10 6 22 25 37 39 34 28 27 30 33 35 39 38 36 32 29 24 23 22 20 16 16 15 16 13 11 11 13 14 16 15
16 12 8 9 15 20 16 2 9 7 7 8 8 5 7 26 19 20 12 17 31 35 38 33 30 26 28 31 35 38 38 35 32 28 24 23 21 18 14 12 11 12 12 9 10 11 12 13 13
19 14 16 9 11 18 14 1 9 9 6 8 12 7 7 10 18 11 12 24 34 33 34 33 28 25 28 31 32 36 37 34 31 28 25 23 21 17 14 11 10 9 11 7 9 9 9 9 9
9 10 11 16 14 9 4 9 13 3 9 10 6 15 17 14 6 10 18 27 31 31 29 30 26 22 24 29 33 34 34 33 31 28 26 23 22 18 15 11 10 9 8 7 7 8 7 7 8
13 12 13 14 10 9 4 9 6 9 7 15 10 13 13 15 18 21 21 26 30 29 26 29 27 23 21 24 29 33 34 33 32 30 28 26 23 19 16 13 11 10 7 6 6 6 8 8 9
19 11 15 22 15 10 8 8 4 8 12 13 15 18 17 16 19 20 21 24 26 28 25 25 26 25 24 23 25 28 31 33 33 32 30 28 23 20 18 16 14 12 9 8 6 5 8 9 10
23 16 16 14 20 17 10 4 9 8 15 14 8 13 17 17 16 18 19 21 22 22 22 16 20 23 24 23 24 26 28 29 31 32 30 28 24 21 19 19 18 16 14 10 9 6 9 10 11
11 11 17 20 21 13 11 9 5 7 11 8 5 12 17 12 14 14 15 16 17 19 18 19 18 18 22 25 27 27 27 28 31 32 31 30 27 24 22 21 21 20 17 13 11 9 11 11 11
7 13 19 20 22 17 12 11 6 3 6 10 10 13 13 13 13 13 14 15 16 19 20 20 20 22 22 21 26 28 29 31 33 34 35 33 27 27 25 25 23 22 20 16 14 13 12 11 10
16 16 11 10 6 12 11 7 2 10 11 10 7 5 4 6 7 11 14 17 18 19 22 23 24 24 22 22 23 29 31 33 35 36 36 34 26 24 22 29 25 23 22 20 18 17 14 9 9
10 11 9 17 10 6 9 13 10 13 17 13 14 12 10 10 12 15 17 17 15 19 23 23 24 27 24 22 22 21 24 26 30 36 35 33 29 26 30 20 25 25 25 19 21 22 18 14 16
14 5 8 14 11 9 13 11 21 22 20 3 11 13 15 17 21 24 26 25 24 21 20 22 24 26 27 23 25 23 25 26 27 30 39 34 34 29 25 24 22 22 21 22 22 20 21 23 21
12 14 9 11 13 17 11 19 20 21 12 11 13 14 17 19 20 24 26 28 30 26 23 20 21 21 28 34 25 22 25 26 26 29 32 36 37 32 28 26 24 23 23 23 22 23 24 23 22
7 11 12 10 10 16 20 13 11 19 11 13 12 17 20 22 22 25 30 31 27 30 28 24 24 25 30 30 30 24 24 24 24 27 29 39 43 45 28 28 25 24 24 23 23 23 23 24 23
10 20 17 18 12 13 12 21 21 13 15 21 26 27 28 27 27 25 25 32 31 31 27 30 28 30 33 28 29 28 23 22 20 23 26 34 40 44 36 26 27 27 26 27 26 25 24 25 27
21 18 23 19 14 15 12 20 25 17 21 32 36 37 39 41 39 34 27 31 36 41 34 32 26 25 22 17 20 17 20 19 19 15 21 25 32 41 34 30 28 28 29 28 26 25 25 26 28
18 19 22 16 15 5 18 21 9 21 27 35 40 43 44 44 45 44 35 32 38 41 41 37 27 25 24 15 13 16 15 16 15 17 15 20 21 29 32 36 26 29 31 32 29 28 29 28 30
10 19 16 21 17 19 26 31 24 26 32 35 40 40 36 35 34 35 41 35 36 40 42 42 33 29 30 24 17 14 14 14 14 13 12 12 17 20 26 30 27 34 35 39 33 32 30 29 28
17 19 23 16 14 18 27 30 29 30 34 28 26 27 25 27 25 27 34 39 41 43 42 44 43 38 36 32 24 20 15 13 13 14 16 10 11 16 17 24 30 30 37 36 35 34 33 32 31
21 26 27 19 20 16 30 36 33 34 35 24 20 20 23 21 20 21 28 39 47 44 50 49 50 48 41 34 28 24 21 18 19 18 20 20 19 20 19 19 22 26 30 34 36 37 36 34 33
24 26 24 25 23 25 33 40 40 14 25 26 25 23 22 22 23 23 25 41 52 49 49 52 54 49 45 39 36 35 25 24 19 19 20 22 26 31 30 29 26 26 24 30 38 40 34 35 32
26 19 23 29 25 25 3 21 19 26 25 29 40 28 24 19 16 15 17 22 33 41 53 52 54 50 44 44 35 34 31 28 21 21 18 22 22 29 31 34 34 33 27 27 32 43 52 60 55
28 12 24 29 30 32 31 22 26 8 21 23 28 23 18 13 12 13 14 16 18 28 39 48 50 51 45 41 38 33 35 29 29 25 29 34 32 34 30 33 34 36 34 33 30 36 48 56 58
19 24 25 25 27 30 39 33 20 21 19 21 23 22 19 18 18 17 18 19 19 17 19 27 34 37 38 38 39 39 36 32 23 19 19 19 20 21 26 27 29 34 37 38 36 32 41 56 72
23 29 20 24 20 23 7 14 29 3 12 15 21 27 23 21 22 23 23 23 21 19 16 14 14 15 17 19 22 26 28 28 27 23 17 24 24 26 26 28 29 29 34 39 39 37 38 47 56
25 29 24 27 24 20 17 14 11 11 26 26 23 24 28 23 21 21 21 20 19 17 16 15 16 18 21 25 29 34 34 24 21 23 22 21 23 27 29 32 34 34 34 38 41 42 43 42 51
31 23 33 41 40 32 34 44 23 25 24 23 30 31 33 26 21 21 19 17 16 10 14 21 24 28 33 37 40 41 39 36 26 30 31 20 29 26 31 35 38 39 38 38 43 45 46 44 49
28 30 21 23 32 44 32 35 20 9 26 28 28 36 39 35 25 19 15 15 17 20 23 29 34 37 39 45 46 42 43 39 37 34 29 30 34 38 45 46 38 40 41 43 43 46 47 47 48
23 32 32 31 32 34 38 29 13 5 17 24 26 39 27 30 36 23 19 23 25 28 31 33 36 41 42 46 48 46 39 43 38 31 28 31 39 42 43 42 41 39 40 42 49 48 49 50 49
35 43 35 26 34 35 37 41 25 22 20 16 19 17 24 19 25 32 38 38 40 44 45 42 40 43 44 46 45 42 41 34 33 33 29 36 41 38 36 37 39 41 43 44 48 52 52 53 54
Wind_Direction_500mb
163 156 171 217 234 235 187 151 320 246 212 47 235 262 26 42 25 36 33 164 151 159 166 161 169 169 165 167 170 172 172 169 166 163 162 158 154 150 149 148 146 137 128 115 105 96 90 88 94
166 160 195 248 253 211 151 133 216 326 295 295 206 204 189 81 53 99 88 149 154 160 165 166 168 168 165 165 169 174 176 175 174 173 174 170 166 159 159 159 153 143 130 116 110 99 96 91 99
160 172 238 236 246 244 129 80 356 319 277 209 151 326 56 42 53 79 113 138 151 156 161 169 168 169 169 171 171 176 179 180 182 184 185 182 176 170 167 180 163 157 139 127 122 104 95 97 114
171 196 226 241 198 70 41 10 353 216 149 184 221 105 90 35 62 92 114 138 146 153 159 166 169 173 172 178 181 183 186 189 192 196 196 191 184 180 178 193 182 177 159 136 138 109 87 98 120
187 228 220 217 157 132 125 24 0 164 161 158 199 121 90 60 76 107 111 136 144 151 160 170 173 176 178 186 191 194 197 200 203 204 202 197 193 188 187 196 203 194 183 155 159 121 95 107 109
206 256 222 188 160 146 110 55 5 125 163 131 131 120 90 78 102 104 108 127 144 151 155 176 180 184 185 190 198 203 207 208 210 209 206 198 197 197 194 198 207 206 204 180 172 135 114 121 119
256 222 234 169 161 157 104 104 68 97 139 77 149 140 116 88 103 111 112 126 143 153 158 177 191 195 197 200 204 207 211 214 214 211 207 203 201 206 204 204 207 211 210 199 180 163 128 124 125
247 262 201 189 186 145 131 153 125 29 87 122 132 158 118 85 106 121 134 140 152 160 170 173 188 201 210 214 211 211 212 214 214 213 210 209 207 211 214 212 212 212 213 211 193 181 157 142 131
218 232 203 191 192 145 156 193 127 126 118 88 105 108 115 103 121 149 162 173 175 179 187 184 189 194 193 202 219 219 217 214 215 216 215 213 211 215 220 216 216 216 218 213 211 198 184 173 159
240 244 189 144 161 183 163 244 154 221 178 166 162 158 137 135 165 196 198 202 206 208 204 199 195 199 199 204 218 223 225 221 219 219 221 213 207 209 201 230 221 220 220 220 213 213 206 190 197
176 247 145 166 169 230 238 240 226 245 225 215 226 217 226 244 238 233 233 231 230 221 220 213 217 226 213 214 216 215 215 215 219 217 215 214 216 219 208 219 225 225 221 222 217 214 210 202 219
195 160 184 159 180 230 236 278 256 243 259 246 237 233 241 243 248 248 248 246 242 236 225 223 220 240 242 217 229 218 217 218 217 220 225 210 213 215 206 211 210 207 223 207 209 217 209 213 210
232 172 191 200 233 236 247 257 266 246 235 240 233 233 230 240 248 249 250 249 244 238 233 219 218 238 241 237 222 223 221 224 221 220 223 215 218 214 216 216 212 214 215 219 217 214 218 218 219
153 210 214 204 191 202 229 235 226 211 211 226 242 241 235 240 248 253 247 243 239 231 226 223 232 249 253 240 233 228 224 228 225 224 223 233 230 227 217 222 223 222 218 220 220 221 221 216 219
203 232 194 197 179 174 244 231 224 194 226 242 248 248 246 245 248 251 246 238 231 227 225 235 242 250 257 257 247 238 222 221 229 238 228 229 230 229 226 224 230 229 226 220 223 223 223 222 221
224 236 207 164 198 157 238 265 171 235 241 259 265 262 259 253 251 247 245 235 229 232 231 231 231 239 239 237 232 218 220 218 225 233 221 227 228 225 231 228 236 237 232 230 226 227 229 229 229
199 238 222 166 214 198 222 272 225 244 266 271 266 261 260 258 253 247 245 239 237 237 227 226 226 217 212 213 223 221 217 226 220 223 219 219 228 230 234 238 232 246 240 234 229 229 229 234 228
227 233 212 249 170 239 258 258 255 261 270 275 263 256 253 255 255 248 237 235 235 237 223 220 217 204 212 190 196 201 215 218 218 224 221 219 230 235 241 250 248 231 248 242 234 228 231 231 237
280 268 265 262 262 267 266 272 271 271 274 267 243 234 235 247 257 246 234 230 235 230 218 214 218 211 207 204 198 198 205 207 204 203 207 200 213 240 244 242 248 244 243 232 237 233 232 230 230
247 256 256 259 258 269 275 274 273 273 262 245 247 233 237 239 243 250 235 229 231 226 224 219 219 220 216 209 203 202 207 219 221 230 231 238 242 247 240 249 254 254 249 254 232 229 228 235 223
240 259 270 275 289 266 267 274 256 229 224 225 244 241 239 245 259 255 241 227 232 229 227 223 220 219 223 216 218 219 216 220 237 246 251 253 249 253 263 260 255 263 267 259 249 232 219 228 237
269 257 258 272 272 273 87 285 269 241 239 243 237 222 224 231 240 240 215 211 215 218 218 217 219 219 223 229 217 219 222 230 236 234 244 245 255 256 257 260 256 254 248 247 245 244 244 218 223
274 312 273 272 270 276 259 253 274 192 227 205 201 204 199 196 188 176 174 166 167 195 206 214 216 221 220 221 211 222 230 234 238 243 252 265 265 270 271 261 257 249 250 250 251 241 239 230 226
272 269 254 255 259 258 250 239 256 228 219 196 186 188 176 163 153 144 138 134 136 143 171 195 205 213 217 219 225 231 224 226 229 240 254 267 266 271 277 272 262 252 249 248 251 249 247 240 237
246 254 258 243 216 252 100 254 245 246 212 199 190 187 180 170 156 148 146 140 131 136 143 155 172 190 203 214 221 226 231 234 240 246 252 265 277 275 277 280 276 263 258 249 248 250 248 248 242
231 249 248 274 267 268 144 243 248 279 238 221 224 215 189 191 172 167 161 156 154 155 167 178 193 208 221 230 237 241 239 228 226 239 248 265 270 276 274 277 277 273 265 254 251 249 249 249 247
246 237 267 275 271 271 263 267 229 219 240 232 216 214 200 189 184 185 185 189 187 200 223 226 223 226 229 227 229 230 232 225 224 246 261 264 273 278 282 277 273 269 265 258 253 250 247 247 249
253 277 230 230 262 261 258 251 255 190 214 223 226 211 211 196 198 196 205 219 243 257 258 253 242 239 237 239 235 229 229 234 243 252 264 266 279 285 289 286 276 271 264 260 256 251 248 243 247
224 236 231 264 263 273 273 268 35 4 254 241 220 216 217 210 216 223 246 258 267 271 271 265 253 242 237 234 229 222 226 237 246 252 258 270 284 289 288 284 276 273 269 262 257 254 249 245 246
283 273 256 248 256 249 258 264 284 282 220 230 215 213 209 223 247 260 272 274 276 278 277 270 254 242 242 235 228 220 225 230 238 248 256 275 286 285 284 283 280 273 269 265 262 259 252 251 246
Wind_Speed_850mb
11 11 8 8 13 12 10 11 5 8 7 4 1 3 16 19 19 10 6 22 25 37 39 34 28 27 30 33 35 39 38 36 32 29 24 23 22 20 16 16 15 16 13 11 11 13 14 16 15
16 12 8 9 15 20 16 2 9 7 7 8 8 5 7 26 19 20 12 17 31 35 38 33 30 26 28 31 35 38 38 35 32 28 24 23 21 18 14 12 11 12 12 9 10 11 12 13 13
19 14 16 9 11 18 14 1 9 9 6 8 12 7 7 10 18 11 12 24 34 33 34 33 28 25 28 31 32 36 37 34 31 28 25 23 21 17 14 11 10 9 11 7 9 9 9 9 9
9 10 11 16 14 9 4 9 13 3 9 10 6 15 17 14 6 10 18 27 31 31 29 30 26 22 24 29 33 34 34 33 31 28 26 23 22 18 15 11 10 9 8 7 7 8 7 7 8
13 12 13 14 10 9 4 9 6 9 7 15 10 13 13 15 18 21 21 26 30 29 26 29 27 23 21 24 29 33 34 33 32 30 28 26 23 19 16 13 11 10 7 6 6 6 8 8 9
19 11 15 22 15 10 8 8 4 8 12 13 15 18 17 16 19 20 21 24 26 28 25 25 26 25 24 23 25 28 31 33 33 32 30 28 23 20 18 16 14 12 9 8 6 5 8 9 10
23 16 16 14 20 17 10 4 9 8 15 14 8 13 17 17 16 18 19 21 22 22 22 16 20 23 24 23 24 26 28 29 31 32 30 28 24 21 19 19 18 16 14 10 9 6 9 10 11
11 11 17 20 21 13 11 9 5 7 11 8 5 12 17 12 14 14 15 16 17 19 18 19 18 18 22 25 27 27 27 28 31 32 31 30 27 24 22 21 21 20 17 13 11 9 11 11 11
7 13 19 20 22 17 12 11 6 3 6 10 10 13 13 13 13 13 14 15 16 19 20 20 20 22 22 21 26 28 29 31 33 34 35 33 27 27 25 25 23 22 20 16 14 13 12 11 10
16 16 11 10 6 12 11 7 2 10 11 10 7 5 4 6 7 11 14 17 18 19 22 23 24 24 22 22 23 29 31 33 35 36 36 34 26 24 22 29 25 23 22 20 18 17 14 9 9
10 11 9 17 10 6 9 13 10 13 17 13 14 12 10 10 12 15 17 17 15 19 23 23 24 27 24 22 22 21 24 26 30 36 35 33 29 26 30 20 25 25 25 19 21 22 18 14 16
14 5 8 14 11 9 13 11 21 22 20 3 11 13 15 17 21 24 26 25 24 21 20 22 24 26 27 23 25 23 25 26 27 30 39 34 34 29 25 24 22 22 21 22 22 20 21 23 21
12 14 9 11 13 17 11 19 20 21 12 11 13 14 17 19 20 24 26 28 30 26 23 20 21 21 28 34 25 22 25 26 26 29 32 36 37 32 28 26 24 23 23 23 22 23 24 23 22
7 11 12 10 10 16 20 13 11 19 11 13 12 17 20 22 22 25 30 31 27 30 28 24 24 25 30 30 30 24 24 24 24 27 29 39 43 45 28 28 25 24 24 23 23 23 23 24 23
10 20 17 18 12 13 12 21 21 13 15 21 26 27 28 27 27 25 25 32 31 31 27 30 28 30 33 28 29 28 23 22 20 23 26 34 40 44 36 26 27 27 26 27 26 25 24 25 27
21 18 23 19 14 15 12 20 25 17 21 32 36 37 39 41 39 34 27 31 36 41 34 32 26 25 22 17 20 17 20 19 19 15 21 25 32 41 34 30 28 28 29 28 26 25 25 26 28
18 19 22 16 15 5 18 21 9 21 27 35 40 43 44 44 45 44 35 32 38 41 41 37 27 25 24 15 13 16 15 16 15 17 15 20 21 29 32 36 26 29 31 32 29 28 29 28 30
10 19 16 21 17 19 26 31 24 26 32 35 40 40 36 35 34 35 41 35 36 40 42 42 33 29 30 24 17 14 14 14 14 13 12 12 17 20 26 30 27 34 35 39 33 32 30 29 28
17 19 23 16 14 18 27 30 29 30 34 28 26 27 25 27 25 27 34 39 41 43 42 44 43 38 36 32 24 20 15 13 13 14 16 10 11 16 17 24 30 30 37 36 35 34 33 32 31
21 26 27 19 20 16 30 36 33 34 35 24 20 20 23 21 20 21 28 39 47 44 50 49 50 48 41 34 28 24 21 18 19 18 20 20 19 20 19 19 22 26 30 34 36 37 36 34 33
24 26 24 25 23 25 33 40 40 14 25 26 25 23 22 22 23 23 25 41 52 49 49 52 54 49 45 39 36 35 25 24 19 19 20 22 26 31 30 29 26 26 24 30 38 40 34 35 32
26 19 23 29 25 25 3 21 19 26 25 29 40 28 24 19 16 15 17 22 33 41 53 52 54 50 44 44 35 34 31 28 21 21 18 22 22 29 31 34 34 33 27 27 32 43 52 60 55
28 12 24 29 30 32 31 22 26 8 21 23 28 23 18 13 12 13 14 16 18 28 39 48 50 51 45 41 38 33 35 29 29 25 29 34 32 34 30 33 34 36 34 33 30 36 48 56 58
19 24 25 25 27 30 39 33 20 21 19 21 23 22 19 18 18 17 18 19 19 17 19 27 34 37 38 38 39 39 36 32 23 19 19 19 20 21 26 27 29 34 37 38 36 32 41 56 72
23 29 20 24 20 23 7 14 29 3 12 15 21 27 23 21 22 23 23 23 21 19 16 14 14 15 17 19 22 26 28 28 27 23 17 24 24 26 26 28 29 29 34 39 39 37 38 47 56
25 29 24 27 24 20 17 14 11 11 26 26 23 24 28 23 21 21 21 20 19 17 16 15 16 18 21 25 29 34 34 24 21 23 22 21 23 27 29 32 34 34 34 38 41 42 43 42 51
31 23 33 41 40 32 34 44 23 25 24 23 30 31 33 26 21 21 19 17 16 10 14 21 24 28 33 37 40 41 39 36 26 30 31 20 29 26 31 35 38 39 38 38 43 45 46 44 49
28 30 21 23 32 44 32 35 20 9 26 28 28 36 39 35 25 19 15 15 17 20 23 29 34 37 39 45 46 42 43 39 37 34 29 30 34 38 45 46 38 40 41 43 43 46 47 47 48
23 32 32 31 32 34 38 29 13 5 17 24 26 39 27 30 36 23 19 23 25 28 31 33 36 41 42 46 48 46 39 43 38 31 28 31 39 42 43 42 41 39 40 42 49 48 49 50 49
35 43 35 26 34 35 37 41 25 22 20 16 19 17 24 19 25 32 38 38 40 44 45 42 40 43 44 46 45 42 41 34 33 33 29 36 41 38 36 37 39 41 43 44 48 52 52 53 54
Wind_Direction_850mb
163 156 171 217 234 235 187 151 320 246 212 47 235 262 26 42 25 36 33 164 151 159 166 161 169 169 165 167 170 172 172 169 166 163 162 158 154 150 149 148 146 137 128 115 105 96 90 88 94
166 160 195 248 253 211 151 133 216 326 295 295 206 204 189 81 53 99 88 149 154 160 165 166 168 168 165 165 169 174 176 175 174 173 174 170 166 159 159 159 153 143 130 116 110 99 96 91 99
160 172 238 236 246 244 129 80 356 319 277 209 151 326 56 42 53 79 113 138 151 156 161 169 168 169 169 171 171 176 179 180 182 184 185 182 176 170 167 180 163 157 139 127 122 104 95 97 114
171 196 226 241 198 70 41 10 353 216 149 184 221 105 90 35 62 92 114 138 146 153 159 166 169 173 172 178 181 183 186 189 192 196 196 191 184 180 178 193 182 177 159 136 138 109 87 98 120
187 228 220 217 157 132 125 24 0 164 161 158 199 121 90 60 76 107 111 136 144 151 160 170 173 176 178 186 191 194 197 200 203 204 202 197 193 188 187 196 203 194 183 155 159 121 95 107 109
206 256 222 188 160 146 110 55 5 125 163 131 131 120 90 78 102 104 108 127 144 151 155 176 180 184 185 190 198 203 207 208 210 209 206 198 197 197 194 198 207 206 204 180 172 135 114 121 119
256 222 234 169 161 157 104 104 68 97 139 77 149 140 116 88 103 111 112 126 143 153 158 177 191 195 197 200 204 207 211 214 214 211 207 203 201 206 204 204 207 211 210 199 180 163 128 124 125
247 262 201 189 186 145 131 153 125 29 87 122 132 158 118 85 106 121 134 140 152 160 170 173 188 201 210 214 211 211 212 214 214 213 210 209 207 211 214 212 212 212 213 211 193 181 157 142 131
218 232 203 191 192 145 156 193 127 126 118 88 105 108 115 103 121 149 162 173 175 179 187 184 189 194 193 202 219 219 217 214 215 216 215 213 211 215 220 216 216 216 218 213 211 198 184 173 159
240 244 189 144 161 183 163 244 154 221 178 166 162 158 137 135 165 196 198 202 206 208 204 199 195 199 199 204 218 223 225 221 219 219 221 213 207 209 201 230 221 220 220 220 213 213 206 190 197
176 247 145 166 169 230 238 240 226 245 225 215 226 217 226 244 238 233 233 231 230 221 220 213 217 226 213 214 216 215 215 215 219 217 215 214 216 219 208 219 225 225 221 222 217 214 210 202 219
195 160 184 159 180 230 236 278 256 243 259 246 237 233 241 243 248 248 248 246 242 236 225 223 220 240 242 217 229 218 217 218 217 220 225 210 213 215 206 211 210 207 223 207 209 217 209 213 210
232 172 191 200 233 236 247 257 266 246 235 240 233 233 230 240 248 249 250 249 244 238 233 219 218 238 241 237 222 223 221 224 221 220 223 215 218 214 216 216 212 214 215 219 217 214 218 218 219
153 210 214 204 191 202 229 235 226 211 211 226 242 241 235 240 248 253 247 243 239 231 226 223 232 249 253 240 233 228 224 228 225 224 223 233 230 227 217 222 223 222 218 220 220 221 221 216 219
203 232 194 197 179 174 244 231 224 194 226 242 248 248 246 245 248 251 246 238 231 227 225 235 242 250 257 257 247 238 222 221 229 238 228 229 230 229 226 224 230 229 226 220 223 223 223 222 221
224 236 207 164 198 157 238 265 171 235 241 259 265 262 259 253 251 247 245 235 229 232 231 231 231 239 239 237 232 218 220 218 225 233 221 227 228 225 231 228 236 237 232 230 226 227 229 229 229
199 238 222 166 214 198 222 272 225 244 266 271 266 261 260 258 253 247 245 239 237 237 227 226 226 217 212 213 223 221 217 226 220 223 219 219 228 230 234 238 232 246 240 234 229 229 229 234 228
227 233 212 249 170 239 258 258 255 261 270 275 263 256 253 255 255 248 237 235 235 237 223 220 217 204 212 190 196 201 215 218 218 224 221 219 230 235 241 250 248 231 248 242 234 228 231 231 237
280 268 265 262 262 267 266 272 271 271 274 267 243 234 235 247 257 246 234 230 235 230 218 214 218 211 207 204 198 198 205 207 204 203 207 200 213 240 244 242 248 244 243 232 237 233 232 230 230
247 256 256 259 258 269 275 274 273 273 262 245 247 233 237 239 243 250 235 229 231 226 224 219 219 220 216 209 203 202 207 219 221 230 231 238 242 247 240 249 254 254 249 254 232 229 228 235 223
240 259 270 275 289 266 267 274 256 229 224 225 244 241 239 245 259 255 241 227 232 229 227 223 220 219 223 216 218 219 216 220 237 246 251 253 249 253 263 260 255 263 267 259 249 232 219 228 237
269 257 258 272 272 273 87 285 269 241 239 243 237 222 224 231 240 240 215 211 215 218 218 217 219 219 223 229 217 219 222 230 236 234 244 245 255 256 257 260 256 254 248 247 245 244 244 218 223
274 312 273 272 270 276 259 253 274 192 227 205 201 204 199 196 188 176 174 166 167 195 206 214 216 221 220 221 211 222 230 234 238 243 252 265 265 270 271 261 257 249 250 250 251 241 239 230 226
272 269 254 255 259 258 250 239 256 228 219 196 186 188 176 163 153 144 138 134 136 143 171 195 205 213 217 219 225 231 224 226 229 240 254 267 266 271 277 272 262 252 249 248 251 249 247 240 237
246 254 258 243 216 252 100 254 245 246 212 199 190 187 180 170 156 148 146 140 131 136 143 155 172 190 203 214 221 226 231 234 240 246 252 265 277 275 277 280 276 263 258 249 248 250 248 248 242
231 249 248 274 267 268 144 243 248 279 238 221 224 215 189 191 172 167 161 156 154 155 167 178 193 208 221 230 237 241 239 228 226 239 248 265 270 276 274 277 277 273 265 254 251 249 249 249 247
246 237 267 275 271 271 263 267 229 219 240 232 216 214 200 189 184 185 185 189 187 200 223 226 223 226 229 227 229 230 232 225 224 246 261 264 273 278 282 277 273 269 265 258 253 250 247 247 249
253 277 230 230 262 261 258 251 255 190 214 223 226 211 211 196 198 196 205 219 243 257 258 253 242 239 237 239 235 229 229 234 243 252 264 266 279 285 289 286 276 271 264 260 256 251 248 243 247
224 236 231 264 263 273 273 268 35 4 254 241 220 216 217 210 216 223 246 258 267 271 271 265 253 242 237 234 229 222 226 237 246 252 258 270 284 289 288 284 276 273 269 262 257 254 249 245 246
283 273 256 248 256 249 258 264 284 282 220 230 215 213 209 223 247 260 272 274 276 278 277 270 254 242 242 235 228 220 225 230 238 248 256 275 286 285 284 283 280 273 269 265 262 259 252 251 246